Location: Bittkow
(50.3000°N, 19.0000°E)
Time: 13:52:34
(UTC+00:00)

PAYLOAD A - Pass Details

Date: 19 September 2020
Orbit: 691 x 832 km, 98.3° (Epoch: 25 October)

Event Time Altitude Azimuth Distance (km) Brightness Sun altitude
Rises 02:33:33 0° 16° (NNE) 3,107 7.8 -18.1°
Reaches altitude 10° 02:35:51 10° 20° (NNE) 2,173 7.0 -17.8°
Maximum altitude 02:40:33 63° 102° (ESE) 777 4.2 -17.1°
Drops below altitude 10° 02:45:11 10° 184° (S) 2,143 6.1 -16.5°
Enters shadow 02:46:21 - 186° (S) 2,616 6.5 -16.3°
